GFSSGP_925_spd_324.txt.gz
Wind_Speed
4 3 2 5 3 4 3 6 2 6 6 2 3 1 5 4 2 3 2 9 6 16 21 17 16 16 16 16 16 19 19 18 18 18 17 15 14 13 13 13 13 13 14 11 10 10 9 9 7
3 2 4 2 4 2 5 5 5 6 4 10 7 3 3 4 1 1 4 7 10 17 22 18 15 16 16 17 16 17 18 18 16 16 16 15 14 14 14 14 13 13 13 13 12 12 10 8 7
2 2 3 4 4 6 5 4 8 6 7 4 5 1 2 3 1 2 3 13 13 20 21 19 16 16 17 18 17 16 17 17 16 16 14 13 14 15 16 16 16 15 13 11 10 9 8 7 7
2 4 4 3 6 4 4 3 2 7 7 1 4 7 3 2 1 2 6 14 15 20 20 18 17 16 16 17 17 16 16 17 16 15 15 15 15 16 17 15 14 13 12 10 9 9 8 7 7
4 2 2 2 4 4 4 4 3 5 5 9 2 6 5 2 3 5 12 16 18 19 19 18 16 17 17 17 16 16 16 17 16 16 15 15 15 15 14 12 12 13 14 13 12 9 8 6 6
3 3 2 4 3 4 6 7 3 3 4 11 4 3 5 6 5 11 15 17 17 21 20 18 17 16 16 15 15 15 17 15 15 16 16 15 15 14 13 13 14 14 12 10 8 7 5 4 5
5 3 2 1 3 3 4 3 3 4 5 6 5 3 4 4 4 12 15 16 16 20 21 20 18 17 15 16 16 15 15 16 15 15 16 14 14 14 15 15 13 10 9 7 6 5 4 4 4
4 4 2 2 3 5 1 5 3 4 5 7 2 3 3 4 4 10 12 15 14 15 16 20 20 19 17 17 17 17 18 18 17 15 16 16 15 15 15 12 9 8 8 6 5 4 3 3 3
3 3 3 4 4 4 2 5 3 3 2 4 5 3 10 12 5 9 9 10 13 16 17 21 22 20 20 19 18 17 18 19 19 16 15 16 15 13 12 10 9 8 7 5 3 2 2 3 4
4 3 6 5 3 3 3 1 4 5 8 4 4 7 19 10 4 4 6 7 11 15 16 17 19 19 20 21 21 20 20 20 19 18 16 15 13 13 12 10 9 7 5 3 2 2 3 4 5
3 5 5 4 5 5 4 4 3 1 5 4 5 7 12 10 11 7 7 6 11 11 13 16 12 12 16 21 22 22 21 21 21 20 18 15 14 12 11 10 8 6 4 3 3 4 4 5 6
1 3 2 4 3 5 5 5 5 6 8 7 8 6 6 10 9 10 10 11 10 12 14 15 18 20 15 20 18 18 21 23 21 19 17 16 15 13 11 10 8 5 4 4 4 4 5 6 7
3 2 4 6 8 7 4 6 6 7 9 10 7 4 6 8 12 18 13 13 12 14 15 17 21 22 25 26 20 26 25 23 21 18 17 17 15 14 12 10 7 5 5 4 4 4 5 6 7
2 3 6 7 7 5 5 3 2 2 7 7 4 6 6 7 11 18 22 17 14 17 18 16 24 23 24 26 24 25 26 28 26 22 19 18 16 14 12 10 7 6 6 5 4 5 6 7 7
3 6 7 2 3 2 3 4 3 2 7 8 9 5 7 7 15 15 18 19 19 18 17 18 19 20 23 23 22 27 29 29 27 24 20 19 17 14 12 11 8 7 7 5 4 6 7 8 8
3 3 4 4 5 5 1 6 5 4 6 7 7 7 8 9 13 20 21 18 13 14 15 17 18 19 20 21 23 26 28 30 26 21 20 20 18 15 13 9 8 8 8 6 6 6 9 9 9
4 2 2 6 4 3 5 7 6 15 10 7 7 7 8 8 15 23 24 21 15 12 13 16 19 20 21 22 22 23 23 23 22 21 21 19 17 15 11 7 8 9 7 6 6 7 6 10 12
3 2 2 3 4 6 5 5 7 11 11 9 9 9 9 9 11 19 24 24 18 13 6 10 18 17 19 22 20 19 18 22 21 21 21 21 19 16 11 10 9 10 8 8 8 7 10 12 14
2 1 2 4 6 2 3 5 6 7 10 11 10 10 10 11 13 20 23 26 24 20 12 3 8 11 16 19 19 17 17 18 20 19 21 22 21 17 10 11 14 12 10 10 10 10 11 15 17
2 1 3 4 2 1 4 1 2 6 6 7 9 11 12 13 14 20 23 26 29 26 21 10 5 9 14 17 16 14 17 17 19 20 20 19 16 15 15 18 16 14 12 11 10 10 11 9 16
3 4 4 5 4 2 5 2 4 4 6 7 9 8 10 12 13 14 21 24 26 30 27 21 9 6 11 17 17 13 9 10 16 18 19 18 16 15 14 14 14 14 12 11 10 10 10 8 18
3 4 3 4 3 3 2 4 4 3 4 6 7 8 9 11 11 12 19 23 25 26 27 25 19 5 6 12 15 17 15 13 18 23 22 18 19 15 14 11 12 11 11 11 11 10 11 9 11
5 2 2 1 3 2 2 2 4 7 3 2 5 6 8 9 10 11 17 20 23 27 28 27 24 17 10 4 8 12 12 12 11 15 18 18 17 17 15 12 13 15 13 12 12 11 12 12 10
3 3 6 4 2 2 7 7 4 6 6 4 1 5 6 7 8 11 15 18 23 29 32 31 28 26 19 9 6 7 9 12 11 11 16 19 19 19 16 12 16 18 15 14 13 13 13 12 14
3 5 3 5 3 6 3 3 6 2 7 6 5 3 6 6 7 7 12 17 21 27 31 29 32 30 25 20 10 7 9 12 13 13 15 19 21 22 20 19 20 23 19 17 14 14 14 13 14
5 7 5 6 3 4 2 6 4 4 7 7 4 3 5 7 6 6 11 16 19 22 27 30 31 29 28 24 20 14 7 10 14 16 17 19 22 25 25 24 19 23 22 18 16 15 14 13 13
3 4 4 6 1 3 4 2 2 4 6 5 4 3 5 6 7 7 13 17 19 22 24 26 27 27 27 27 24 20 16 10 11 15 17 19 19 22 24 22 22 24 24 20 18 17 15 13 12
4 4 2 2 2 5 4 4 4 11 10 6 4 1 3 4 6 6 11 15 17 17 19 22 24 25 25 25 25 24 20 17 12 11 14 18 20 20 22 26 25 23 24 22 20 17 15 13 13
1 1 1 2 5 5 1 5 3 12 11 9 6 5 5 5 5 5 9 11 12 14 18 19 22 24 25 25 24 24 24 21 17 12 11 15 18 20 21 23 25 23 27 24 22 18 16 15 14
3 2 1 3 5 2 3 7 8 6 11 8 6 6 5 5 5 5 8 9 9 10 13 15 18 21 22 22 23 23 23 23 20 17 13 11 15 18 20 21 24 27 29 28 25 22 20 18 18

GFSSGP_925_spd_327.txt.gz
Wind_Speed
3 3 2 4 2 3 1 3 1 4 6 1 5 5 5 3 5 3 5 7 7 15 20 17 13 14 13 14 15 17 16 16 16 14 15 14 13 13 13 12 12 12 12 14 14 13 12 12 9
2 1 4 2 3 1 3 4 5 4 2 10 6 2 2 5 2 2 3 3 11 17 19 16 13 15 14 14 16 17 17 16 14 14 13 13 13 14 14 12 12 11 12 13 14 14 11 9 8
1 3 3 3 2 4 3 4 4 3 6 2 5 1 4 3 2 2 3 7 11 17 19 17 14 14 14 15 16 17 17 16 15 14 14 14 14 14 15 14 14 15 16 15 12 9 8 8 8
1 4 3 3 4 4 5 3 2 7 2 1 2 7 5 3 4 4 2 9 11 18 18 18 16 15 15 16 15 15 16 16 15 15 14 15 15 18 19 16 15 14 12 9 9 9 9 8 8
5 2 2 1 2 3 5 4 1 5 6 4 1 5 4 3 6 3 5 9 12 17 16 16 16 16 16 17 16 16 16 16 15 16 14 15 14 17 15 14 12 12 15 14 13 10 9 7 7
3 2 3 2 3 4 5 4 2 2 2 7 2 3 4 8 6 1 3 7 9 14 16 16 15 15 16 18 17 16 16 17 17 16 16 15 14 15 13 13 16 16 14 12 10 8 7 6 7
5 3 3 3 3 3 3 4 0 2 3 2 2 3 4 8 22 4 4 6 8 15 18 18 18 16 16 17 17 17 19 17 18 16 15 16 14 13 15 16 15 13 11 10 8 6 6 5 5
4 3 2 3 2 4 3 5 2 4 4 8 2 2 4 17 19 5 7 9 8 14 17 19 18 17 17 17 17 19 19 19 17 16 16 16 16 16 15 13 12 11 9 9 7 6 5 4 4
2 3 2 3 4 2 2 6 3 2 1 4 5 1 3 18 13 6 4 7 9 10 14 16 19 21 18 18 19 19 21 22 19 17 16 16 16 17 14 12 10 9 8 7 6 4 3 3 4
3 3 6 4 2 1 5 1 4 4 6 3 4 5 16 19 18 9 7 6 7 11 12 12 14 18 17 18 19 21 21 21 20 18 18 18 16 15 14 13 10 8 7 5 4 3 4 5 6
2 4 3 2 3 0 1 3 2 3 4 5 6 6 11 15 16 12 10 8 10 11 7 13 8 10 9 9 15 19 21 22 22 21 21 17 15 14 13 12 11 8 6 6 6 7 7 7 7
1 3 3 3 0 4 3 2 4 4 6 7 6 5 5 7 10 11 16 16 15 13 10 13 16 17 18 15 14 14 21 23 25 23 22 19 17 14 13 11 9 7 6 6 6 7 8 8 8
2 2 2 5 7 6 3 5 4 5 8 9 7 5 6 5 13 16 14 14 16 16 15 13 15 21 22 12 14 10 10 16 23 22 20 19 18 16 13 11 9 7 6 5 6 8 8 9 9
2 3 6 6 5 3 4 3 3 2 8 9 7 7 7 7 11 13 18 19 17 16 16 13 11 17 20 18 20 19 20 27 24 23 22 18 17 15 14 12 9 8 7 6 7 9 10 10 9
3 5 6 2 3 2 2 2 4 9 10 9 11 8 8 10 16 16 18 19 17 17 15 13 13 12 15 16 18 21 23 22 22 21 17 17 15 14 13 12 10 8 7 7 8 10 11 10 10
3 4 3 4 5 3 1 5 7 12 6 9 10 11 9 10 14 18 21 21 17 14 13 10 12 10 11 13 14 16 18 17 19 16 16 16 16 15 13 11 10 9 7 8 8 10 12 11 11
5 1 1 6 4 5 5 5 6 10 9 9 9 10 10 12 18 23 24 22 19 14 11 8 9 11 9 11 12 12 13 14 17 18 17 16 14 15 11 9 9 10 9 8 9 10 8 13 14
1 1 2 4 3 5 4 3 4 7 8 7 8 10 11 12 14 20 24 24 20 17 10 2 4 7 7 9 10 10 9 10 14 19 18 20 20 16 14 10 7 6 9 11 9 7 10 13 15
4 2 3 4 4 2 3 3 4 5 6 8 8 9 10 11 14 19 23 25 25 22 16 11 3 5 7 8 8 7 6 8 12 15 17 17 21 17 21 16 17 10 8 8 7 10 13 15 17
2 2 4 5 4 1 2 4 0 3 3 4 6 9 10 12 14 21 24 27 29 26 24 17 8 1 7 9 10 7 5 7 9 12 13 14 17 19 16 10 9 11 9 8 9 10 14 11 15
4 4 4 6 4 2 3 4 4 1 3 5 6 6 9 11 13 14 22 24 26 28 28 23 16 4 1 7 8 7 6 4 7 11 13 16 16 17 14 11 10 9 9 8 10 12 12 9 17
3 6 4 3 2 3 2 4 4 4 2 3 5 6 8 10 11 14 19 23 26 27 26 23 19 12 8 1 5 8 8 6 5 9 14 13 15 16 17 14 11 6 7 8 10 12 13 9 11
5 4 3 1 2 3 1 1 4 5 5 3 2 5 6 7 9 11 16 18 22 26 26 25 24 19 14 10 8 3 2 0 1 3 8 11 13 14 16 18 16 11 9 8 10 11 11 11 9
7 5 6 4 2 2 5 6 4 6 5 4 2 3 5 6 7 11 15 18 23 28 29 29 27 25 22 15 11 7 5 2 1 4 8 12 14 17 17 16 16 17 16 10 9 11 12 11 12
3 5 2 4 2 6 2 3 6 4 6 8 7 3 4 4 5 6 13 18 23 27 29 28 29 29 25 21 18 13 7 3 1 3 6 11 14 18 20 20 21 17 13 12 12 14 14 13 13
6 7 5 7 3 3 2 6 4 1 7 8 6 4 3 4 4 5 9 14 19 23 26 28 28 27 26 24 21 17 14 8 2 2 5 10 13 17 18 20 21 18 15 14 14 15 15 14 13
3 4 2 6 2 3 3 4 1 4 5 5 5 4 3 3 5 6 10 12 15 18 21 23 24 24 24 24 22 21 17 15 10 2 4 7 10 12 15 18 20 19 16 16 14 16 16 15 14
3 4 3 2 3 5 3 4 4 9 8 6 5 4 2 2 4 5 9 11 12 13 15 17 19 21 22 22 22 21 20 17 13 8 4 6 8 10 12 14 20 22 21 18 16 16 15 15 15
1 2 2 2 3 5 1 4 3 4 11 12 8 6 4 3 4 4 7 8 8 9 11 13 15 18 20 20 20 20 20 19 16 12 8 6 7 9 11 13 16 20 21 19 20 19 15 18 16
2 2 3 3 5 2 2 7 5 5 9 11 7 5 4 4 6 7 11 9 7 8 9 10 11 13 15 17 18 18 18 19 19 17 14 9 6 8 9 11 15 17 23 22 23 22 21 20 17

GFSSGP_925_spd_333.txt.gz
Wind_Speed
9 8 6 6 5 4 7 3 7 3 4 6 11 8 13 10 6 4 6 5 3 8 10 11 11 10 11 12 13 15 15 14 13 14 15 14 13 12 10 9 9 9 13 13 13 13 11 8 8
7 6 5 2 5 7 1 4 6 8 10 11 10 8 7 3 8 3 5 9 2 6 8 10 11 12 12 13 13 14 15 14 14 14 14 14 12 11 11 11 10 10 11 14 13 13 10 9 8
6 4 4 4 3 6 7 8 7 7 7 7 7 9 5 7 12 7 11 4 2 5 7 8 11 12 12 13 13 15 15 15 14 14 14 14 13 12 12 12 11 12 12 15 14 10 9 9 8
3 5 4 6 7 3 7 11 9 13 11 4 7 11 2 10 8 10 7 3 1 4 6 4 7 11 11 12 13 15 15 15 14 14 14 15 15 14 14 14 15 17 17 12 9 8 9 8 8
3 2 5 5 6 4 6 8 11 12 12 9 8 10 7 9 14 10 8 3 2 5 7 6 11 8 11 11 12 14 15 15 14 14 15 16 17 17 18 18 18 14 11 10 10 10 9 8 7
3 3 5 6 4 3 5 7 9 9 8 7 8 10 6 8 21 14 6 5 3 3 5 7 9 10 11 11 11 13 16 16 15 16 16 17 18 18 18 16 14 10 10 12 11 10 9 7 7
4 3 4 6 6 5 4 8 7 10 8 8 11 9 6 15 20 15 8 2 3 4 6 7 8 11 12 11 12 13 14 16 16 17 19 20 19 17 15 14 12 13 12 11 9 8 8 7 7
4 3 3 1 5 5 5 7 5 9 11 9 7 8 11 16 20 16 7 3 4 6 6 8 9 10 10 9 12 12 14 17 20 21 21 21 18 16 14 13 15 14 12 10 9 8 7 5 5
2 4 3 3 4 5 2 6 8 8 12 10 5 10 12 14 17 16 10 5 4 7 8 8 9 9 7 5 6 12 13 18 21 22 23 20 18 16 13 13 15 14 11 10 8 7 5 5 6
4 3 4 4 5 7 7 7 10 9 11 12 10 14 15 15 17 14 12 13 13 14 12 9 4 7 10 8 5 5 6 8 18 24 24 21 17 14 13 17 15 12 9 7 6 6 8 9 6
0 3 3 2 4 7 9 9 4 8 9 10 13 16 16 16 14 13 14 14 16 16 13 7 5 5 6 8 12 9 20 22 15 17 23 21 22 17 12 15 12 11 9 7 7 7 6 7 6
6 2 4 3 2 5 10 11 11 11 8 8 9 12 12 12 11 11 15 18 18 15 14 12 5 6 5 5 13 17 9 9 24 14 13 20 18 15 12 12 11 9 8 8 7 7 8 9 9
7 3 4 6 7 10 12 14 13 12 3 9 7 8 9 10 12 12 12 13 18 17 15 14 11 9 11 7 7 6 7 7 9 17 15 15 16 11 9 9 9 8 8 7 8 8 8 9 9
2 8 10 7 8 8 9 12 3 2 7 9 7 7 8 8 13 13 13 16 17 19 17 16 15 11 9 11 11 9 11 8 2 5 11 10 15 15 9 8 9 9 9 8 9 8 9 9 9
5 8 8 9 5 4 6 12 10 3 7 8 7 9 8 8 12 13 14 14 17 17 17 16 15 13 10 11 10 12 15 15 16 14 12 12 13 16 15 8 9 9 9 9 10 9 10 11 9
5 5 6 8 4 4 3 14 7 3 7 9 8 8 9 9 10 13 16 15 15 16 17 16 14 12 10 6 11 14 16 18 17 16 17 13 13 14 13 11 10 9 8 9 9 9 9 10 9
6 8 7 5 4 3 8 11 5 1 7 9 8 8 8 9 11 13 15 16 16 15 16 15 13 10 6 4 5 7 13 14 15 17 22 20 16 17 16 14 13 9 8 7 9 9 9 9 9
9 7 6 9 4 7 13 18 16 4 7 8 6 7 7 9 10 14 15 15 15 15 15 14 11 9 3 3 5 6 6 6 9 14 21 19 18 19 19 16 14 11 11 9 8 11 10 7 8
9 10 14 13 7 7 15 17 15 10 7 7 5 5 5 7 9 13 15 14 15 16 15 14 12 14 7 2 4 5 5 4 5 9 14 18 17 15 15 15 15 14 13 12 11 11 12 11 8
9 12 14 12 7 6 14 18 17 14 11 6 5 2 4 6 8 12 15 15 16 16 17 16 15 14 12 10 2 2 5 6 5 7 10 14 17 17 16 17 18 17 19 15 12 10 11 7 10
10 13 14 15 12 14 15 17 20 13 5 6 4 1 2 5 8 10 15 18 17 18 18 17 17 16 15 9 6 3 5 7 7 9 10 13 15 15 16 17 17 16 15 15 12 12 12 9 11
11 5 10 11 8 6 1 9 14 9 10 10 6 4 2 4 7 9 13 17 20 19 17 18 17 19 19 15 12 9 5 2 1 8 10 12 13 14 14 16 16 16 15 15 15 14 13 10 8
3 3 4 8 11 13 13 7 6 3 12 12 9 5 3 4 5 8 11 14 17 18 19 18 18 18 20 19 18 15 13 10 4 5 9 10 12 11 13 14 14 16 16 13 14 14 14 12 8
2 4 6 5 6 7 15 13 9 6 3 8 9 7 5 4 4 7 9 11 14 16 17 18 19 20 19 19 20 18 15 13 10 5 3 6 8 10 10 11 13 15 16 16 14 14 11 9 11
5 6 3 4 4 6 6 7 14 6 4 4 10 9 6 4 3 5 9 11 13 16 17 17 19 20 19 19 19 17 15 15 12 9 6 1 2 5 8 11 14 16 16 16 12 11 10 9 10
7 8 5 7 9 12 4 6 3 5 3 2 9 9 7 5 3 4 6 9 10 13 14 16 17 18 19 18 17 16 17 14 12 11 10 6 5 4 6 10 14 16 16 16 16 15 13 10 10
2 6 6 11 10 6 10 18 4 4 3 5 7 9 9 7 4 3 4 7 9 10 11 12 13 14 15 16 16 17 16 16 14 12 10 7 7 7 6 8 10 14 16 17 16 15 14 13 10
6 5 4 4 6 15 14 17 12 6 8 9 11 11 10 7 5 3 4 6 5 5 6 8 10 11 12 13 14 14 15 15 14 14 13 11 8 7 5 6 8 12 14 17 18 16 15 14 12
5 4 7 8 8 13 16 13 3 1 7 12 13 13 11 8 5 2 3 8 7 6 5 6 7 9 11 11 12 13 14 13 13 14 14 14 12 9 6 6 9 10 12 15 19 19 16 15 13
4 8 12 10 17 14 13 16 5 2 5 9 12 11 10 8 6 3 5 8 7 6 7 6 5 5 6 8 10 11 12 13 15 16 16 15 15 14 10 8 7 9 10 11 14 19 18 18 16

GFSSGP_925_spd_336.txt.gz
Wind_Speed
10 12 11 8 3 3 6 6 7 9 6 10 9 6 8 7 6 2 4 13 6 6 6 8 9 6 5 6 8 9 10 9 9 11 12 12 10 9 8 9 10 12 14 13 13 11 9 8 8
12 11 8 4 3 3 5 11 13 10 7 9 9 8 9 10 13 5 9 15 6 4 4 5 6 6 6 8 8 9 10 10 9 10 12 12 11 9 8 9 10 11 13 13 14 11 9 8 8
12 8 3 3 2 3 4 8 8 9 7 5 6 7 6 6 12 9 12 10 6 1 3 5 4 6 7 7 9 10 10 10 10 10 11 12 12 10 10 9 10 12 13 14 16 9 8 8 7
8 5 3 2 6 10 6 9 10 8 6 8 7 7 5 19 10 16 15 10 8 4 3 0 5 6 6 6 8 10 11 11 11 11 11 11 11 11 11 11 12 14 18 14 11 11 9 8 8
6 3 3 2 4 5 8 8 9 7 5 7 8 8 5 20 18 16 15 10 9 6 4 5 8 8 6 4 8 11 11 12 11 12 12 13 13 13 13 15 18 17 14 12 11 11 10 8 8
3 1 3 3 8 8 6 9 8 8 9 9 7 9 3 21 25 22 13 9 8 7 7 6 8 8 7 11 8 13 12 12 12 12 14 14 16 16 17 17 16 13 11 12 12 11 10 9 9
4 2 3 6 4 2 5 7 7 6 8 8 6 6 3 17 20 21 15 9 7 8 9 10 7 7 8 7 12 11 10 12 12 14 16 17 17 18 19 16 14 13 14 13 12 10 10 10 9
4 2 2 4 5 4 5 6 5 5 6 9 2 5 8 11 17 19 19 17 15 13 14 13 10 8 7 8 11 10 8 9 13 16 20 20 21 19 14 16 16 16 15 13 11 10 8 8 8
3 3 2 4 1 4 6 4 6 8 7 6 3 1 14 22 17 20 17 20 19 22 21 16 8 6 5 7 8 9 13 7 5 11 20 23 22 18 16 16 16 15 13 12 10 10 10 9 10
3 3 6 4 6 5 8 7 8 6 8 8 10 16 21 21 17 13 20 20 22 22 22 18 14 10 6 4 11 9 12 17 14 22 36 14 22 19 19 18 17 15 12 11 11 14 14 12 11
3 3 6 3 7 8 6 7 6 7 8 6 7 9 13 15 18 18 15 16 16 17 17 18 16 14 8 5 5 7 8 15 16 25 37 28 18 18 17 16 13 11 11 12 11 10 11 11 10
3 1 4 5 4 4 6 9 8 9 10 7 7 7 10 9 12 15 15 14 16 17 17 18 15 14 8 7 7 5 7 10 7 14 11 13 6 15 15 12 11 11 10 11 9 10 11 12 14
6 5 5 6 5 6 7 7 9 10 7 7 8 7 6 7 12 14 14 16 17 18 18 20 17 15 15 9 2 2 3 5 1 8 7 4 4 14 9 8 7 8 9 9 12 12 13 15 15
6 7 9 7 6 6 7 7 6 3 7 6 6 6 6 7 11 14 17 18 19 19 19 20 18 13 14 10 9 6 4 3 3 2 5 9 4 7 12 11 7 8 8 10 11 13 13 16 16
5 6 8 9 7 3 4 8 10 3 3 6 6 6 7 8 12 13 16 18 19 20 20 19 18 15 12 9 12 9 9 7 8 5 9 10 6 2 10 12 13 9 7 8 12 14 14 14 14
3 5 4 7 4 4 1 7 7 5 1 5 7 5 6 7 12 17 18 18 18 19 20 18 17 15 10 9 10 11 14 12 12 10 10 9 6 6 6 8 9 9 10 4 7 12 14 14 14
5 4 5 4 4 2 5 8 2 5 4 5 6 5 6 7 12 16 17 17 18 19 20 19 17 13 7 4 6 11 10 14 15 14 14 15 15 13 13 13 14 16 15 9 9 10 13 16 16
7 4 6 3 5 6 8 14 12 9 6 5 5 3 5 7 7 15 17 17 18 18 18 19 16 10 8 3 2 5 7 9 10 13 13 17 16 16 15 13 14 15 14 12 9 13 11 13 16
5 7 9 9 11 1 6 12 13 11 6 6 6 3 6 6 10 15 17 18 19 20 21 20 18 13 13 4 4 4 4 4 4 6 9 15 16 15 13 13 16 16 14 13 14 16 16 14 15
6 8 9 10 4 4 9 15 14 18 13 7 4 5 7 6 7 13 17 19 20 20 21 22 21 17 13 11 7 3 2 2 3 4 6 9 13 13 12 14 16 17 17 17 17 17 17 11 15
5 6 7 10 10 7 11 13 9 8 8 9 6 5 4 6 7 8 14 18 20 22 21 20 21 21 16 12 9 7 4 5 3 4 5 9 11 12 13 15 16 17 17 18 17 15 9 8 12
5 7 8 8 6 3 4 6 4 9 5 6 6 3 6 6 6 8 12 16 19 20 20 20 19 22 22 15 14 14 11 6 6 1 4 6 8 9 11 12 14 15 15 15 12 10 10 6 7
1 5 5 5 7 8 5 4 3 6 6 6 8 6 7 5 5 6 10 14 16 18 20 20 21 23 22 23 19 18 19 14 9 6 4 5 6 6 8 9 11 14 14 13 13 10 10 8 4
7 6 8 5 3 2 6 4 4 3 3 7 8 7 7 5 5 7 9 11 14 17 18 20 22 23 23 24 24 22 20 17 17 13 10 5 3 4 5 7 9 11 12 13 14 14 12 9 7
1 3 4 4 1 5 6 5 4 4 4 2 8 8 7 5 5 5 6 9 11 14 17 18 20 23 22 24 24 23 18 18 19 16 12 8 6 4 2 4 7 10 11 12 10 9 8 7 6
3 3 3 4 3 8 12 5 4 2 3 3 7 8 7 6 4 5 4 6 8 11 14 16 18 19 20 21 22 21 21 19 17 13 13 12 7 6 4 3 6 8 10 11 11 10 9 9 7
2 3 1 1 4 2 4 7 2 3 1 3 5 6 6 7 5 5 5 5 6 8 11 13 14 16 17 18 18 20 20 20 18 16 13 10 8 8 8 5 5 5 8 11 11 12 10 8 6
3 3 1 1 3 5 5 12 13 7 6 6 7 6 7 6 6 4 5 5 4 5 7 9 11 12 13 15 16 16 16 16 17 16 16 14 10 6 3 4 4 6 6 8 12 12 10 9 9
2 1 3 3 2 3 6 8 6 4 3 8 8 7 7 7 6 4 2 5 6 4 3 5 8 9 10 11 11 13 14 15 15 16 16 16 14 13 7 4 3 4 6 7 8 12 11 11 10
3 3 2 3 10 7 9 21 6 4 4 7 6 7 6 8 7 4 0 5 7 5 6 6 4 5 6 6 7 9 10 12 14 15 16 16 16 15 15 10 6 4 4 7 7 9 11 13 11

GFSSGP_925_spd_342.txt.gz
Wind_Speed
19 15 9 4 5 6 3 3 3 7 5 3 4 5 6 3 3 1 11 19 16 12 9 9 7 9 4 4 5 5 6 5 6 7 8 8 9 10 9 9 10 13 12 12 11 10 12 13 13
19 13 5 3 5 4 2 5 6 3 3 7 6 3 5 3 5 4 11 23 17 13 12 11 9 20 18 10 3 2 5 5 6 6 9 9 10 10 10 10 11 13 13 14 13 11 12 13 13
10 8 4 4 3 4 3 3 2 7 7 6 5 6 4 6 7 8 18 21 16 19 17 9 10 15 21 18 6 3 5 6 6 6 8 10 11 11 11 12 13 15 15 14 14 12 11 14 13
8 6 4 5 5 7 4 3 3 6 9 10 3 6 3 8 7 16 17 17 17 21 20 17 16 12 10 17 14 4 9 11 9 8 8 10 12 13 13 14 15 16 16 16 15 12 12 14 15
4 3 5 5 5 1 2 2 4 6 3 6 8 2 3 7 16 17 20 23 25 22 19 17 12 4 9 19 15 9 7 9 14 8 7 10 12 14 15 16 17 17 16 18 15 14 14 15 16
4 3 5 3 5 3 1 4 4 3 5 7 7 2 3 16 19 21 21 22 23 25 24 22 15 10 5 6 18 10 6 9 15 11 5 6 9 16 17 18 17 19 18 14 14 14 14 15 15
6 4 4 4 3 2 2 2 4 3 4 4 2 2 1 21 16 15 19 21 22 22 26 25 24 17 13 8 5 11 7 13 18 29 28 25 13 10 16 17 19 19 17 16 14 14 15 16 16
4 4 3 2 2 2 6 2 2 6 3 8 4 4 4 8 15 17 20 23 22 24 25 25 24 15 15 12 9 3 0 5 9 19 27 30 28 22 39 24 23 20 17 14 14 15 16 17 16
3 4 2 1 2 3 5 5 6 4 3 4 3 3 3 11 19 26 30 29 29 27 27 25 22 18 13 13 9 9 6 6 6 13 17 27 23 25 29 22 24 19 18 14 14 15 16 17 16
5 4 2 2 2 3 1 4 5 5 7 4 2 2 6 13 23 24 24 25 30 31 29 26 23 16 16 13 11 8 6 3 3 1 9 12 8 9 11 19 21 16 15 15 14 16 16 16 16
2 3 2 3 3 2 3 6 3 3 3 2 2 7 11 18 20 19 20 22 24 28 28 27 25 19 15 12 12 10 5 4 4 5 8 5 8 6 4 5 3 12 10 15 15 16 16 16 16
4 6 4 1 2 2 2 3 7 2 4 2 2 2 4 10 14 17 20 25 30 32 31 28 25 21 16 13 10 7 3 2 2 1 2 4 9 9 12 12 9 3 5 10 13 14 15 16 15
4 4 6 5 5 3 0 4 3 7 8 6 4 8 7 11 13 17 20 25 28 31 32 30 26 21 18 14 9 6 4 4 2 2 5 10 10 10 9 13 19 11 6 8 13 15 16 16 16
2 4 6 6 3 1 2 3 2 2 2 3 7 6 8 12 13 19 24 24 27 28 31 29 26 23 21 15 8 8 5 6 5 5 7 9 8 12 16 19 19 17 12 9 13 15 17 17 17
2 5 6 2 3 2 0 3 3 3 2 2 6 6 7 11 18 18 18 20 22 26 28 27 25 23 22 14 9 10 10 8 8 6 10 14 15 15 15 20 21 20 17 14 13 15 15 16 16
4 4 4 5 3 4 4 6 5 3 1 5 5 6 6 8 15 17 19 20 22 24 25 26 23 21 20 14 10 9 12 11 10 11 12 14 13 15 21 20 18 21 22 20 14 12 15 16 13
6 1 3 6 5 1 4 7 6 3 6 8 5 5 6 6 15 18 19 20 21 21 23 25 23 22 20 13 10 8 5 11 9 9 13 14 11 13 17 17 20 21 21 19 17 15 13 16 14
1 2 3 3 5 7 4 13 8 7 6 9 2 6 6 7 6 14 18 19 20 21 20 22 22 20 18 13 9 8 4 3 9 12 15 16 14 14 15 17 19 20 19 19 19 17 16 18 18
2 1 2 4 5 5 1 7 17 10 5 7 6 5 5 5 4 14 19 21 23 24 23 23 22 21 19 18 14 9 8 5 1 4 8 12 15 16 17 17 19 19 21 21 20 18 19 18 19
2 2 4 5 5 3 6 10 6 5 4 3 8 5 3 3 6 12 17 20 23 25 25 23 22 21 20 17 12 7 6 6 5 2 1 6 11 14 15 18 19 19 18 19 20 23 19 15 18
4 2 3 4 7 2 6 6 7 4 4 5 2 2 4 5 5 8 16 19 22 25 26 24 20 19 20 17 13 8 5 7 8 8 4 1 5 9 12 14 16 18 21 22 20 22 19 12 16
2 2 2 4 5 2 5 4 6 6 4 3 2 3 4 5 5 7 11 17 20 21 23 23 24 22 20 20 17 17 15 12 10 8 5 3 1 3 7 11 14 17 17 19 20 19 15 13 16
3 2 3 1 1 3 5 3 7 4 3 5 6 1 1 1 3 5 10 12 15 18 21 22 24 27 25 21 21 20 19 16 14 12 10 6 4 2 2 7 11 14 16 19 21 20 16 11 11
3 3 6 4 2 3 3 3 5 3 4 5 4 2 3 2 3 4 6 9 13 16 18 21 23 25 26 26 24 22 21 21 20 19 17 14 11 8 3 3 10 11 15 18 19 18 17 13 8
6 6 4 6 4 4 3 2 7 5 4 4 8 7 5 2 2 1 4 8 11 14 17 19 21 24 24 26 26 26 24 21 20 19 18 15 15 15 11 3 2 7 12 15 16 16 13 12 8
3 4 5 5 3 4 4 4 2 3 5 6 8 5 0 4 4 3 1 3 7 10 13 15 18 20 22 23 24 24 24 23 21 20 16 16 15 14 12 8 6 3 7 9 12 11 11 10 10
1 2 3 4 1 3 2 5 7 1 9 8 8 6 7 7 6 7 6 2 4 8 10 13 15 17 20 21 21 22 22 23 23 21 19 19 18 16 11 8 4 5 5 9 10 9 10 10 10
2 4 3 3 2 5 4 3 5 5 5 9 10 9 10 9 9 7 7 4 3 2 6 9 13 16 18 19 20 19 19 20 20 21 22 22 19 15 11 7 6 5 5 3 5 7 8 9 9
2 1 4 3 4 4 3 4 6 4 7 7 8 9 8 9 8 7 9 3 5 6 8 9 12 15 19 21 20 18 18 18 18 19 20 20 19 18 15 11 7 5 4 4 5 7 8 8 8
3 5 5 4 5 4 3 11 7 8 5 9 12 12 10 8 8 7 5 2 4 6 6 9 11 12 13 13 15 17 16 17 18 18 18 18 18 18 17 15 12 8 6 6 4 6 7 9 10

GFSSGP_925_spd_345.txt.gz
Wind_Speed
17 11 6 5 5 6 3 3 2 6 7 2 5 6 7 4 3 4 25 32 27 22 16 13 10 10 28 45 30 17 11 7 9 9 8 8 8 9 10 12 12 13 13 13 13 13 12 12 13
14 8 5 3 5 4 3 2 3 2 4 9 4 3 7 3 4 7 17 30 21 22 22 16 12 13 8 24 29 23 15 10 4 6 9 10 10 10 10 10 11 14 14 14 12 12 13 13 13
7 7 4 4 4 3 3 1 4 5 5 8 3 4 2 8 9 9 19 22 21 25 24 23 17 12 9 2 14 31 16 13 9 9 7 9 10 10 11 11 12 15 15 15 14 13 13 12 13
6 7 5 5 5 1 4 1 2 4 9 8 3 5 3 14 7 13 19 24 24 27 24 21 16 11 7 18 11 23 13 16 10 13 15 10 9 11 12 13 15 16 16 14 16 13 13 12 14
6 3 5 4 2 2 1 1 2 5 2 6 5 2 3 7 8 19 23 26 28 27 26 23 23 14 13 13 7 5 10 16 12 17 29 32 23 12 11 16 17 17 17 16 17 14 12 12 13
4 3 5 2 3 1 1 2 3 3 4 5 5 1 3 9 18 18 22 25 27 29 27 25 24 20 12 9 6 3 5 7 10 12 26 30 31 32 30 25 20 18 17 21 18 15 14 14 14
6 4 4 4 5 1 3 5 3 2 3 4 5 2 1 13 17 18 19 23 28 30 30 28 23 21 21 16 11 9 5 2 5 10 17 29 32 31 39 26 22 23 24 22 19 15 13 14 15
4 4 4 5 1 1 5 3 3 5 1 5 2 3 4 8 16 19 21 27 30 33 33 30 24 21 17 18 13 11 9 12 10 12 14 17 16 17 18 19 14 34 27 21 18 18 14 15 16
2 5 2 2 0 2 5 3 5 5 3 4 4 3 4 11 17 24 31 36 37 36 34 32 28 23 20 14 16 14 12 9 8 9 8 7 3 10 4 13 18 25 18 16 16 16 17 15 17
5 4 3 2 3 1 3 3 4 5 7 2 2 3 8 13 21 25 26 26 35 37 34 32 29 26 20 19 15 15 13 9 8 8 9 8 6 1 2 1 5 8 14 10 10 16 17 17 19
2 4 4 2 2 2 1 3 3 4 3 2 3 5 8 14 22 23 24 25 26 31 34 32 29 26 24 20 17 16 12 9 7 7 8 4 4 6 5 4 6 12 12 5 4 12 14 17 19
5 5 2 1 3 3 4 4 6 1 2 3 6 5 6 11 15 20 24 26 31 33 34 33 29 27 25 22 17 14 13 9 9 7 5 3 5 7 6 5 6 10 19 4 5 9 13 17 18
5 3 4 5 6 3 1 4 3 5 8 5 7 12 8 10 14 18 22 25 30 33 34 33 31 26 26 24 16 12 13 12 8 5 4 3 5 7 8 9 13 17 18 12 6 8 11 16 17
1 3 5 4 5 3 2 2 3 2 5 7 8 7 7 10 14 19 27 28 30 30 32 32 31 28 25 22 18 13 13 13 9 6 5 4 6 8 11 15 16 17 19 17 12 8 11 17 17
1 4 3 8 5 4 4 3 2 4 3 6 6 5 6 11 17 19 21 25 27 29 29 30 30 28 26 19 19 17 12 12 11 8 5 5 5 7 9 15 18 17 21 18 16 14 12 16 17
5 5 4 7 7 5 4 5 3 5 6 7 5 3 6 8 13 20 23 24 26 27 28 27 28 28 27 19 18 17 15 14 9 9 8 9 8 7 10 15 17 20 21 21 18 17 16 16 16
7 3 5 4 7 5 9 7 5 7 8 8 6 6 6 6 14 22 23 24 26 27 27 28 27 29 28 21 15 14 12 7 7 8 10 10 9 7 12 14 17 21 23 21 19 16 16 17 15
3 3 3 2 7 6 4 8 9 7 8 8 4 6 6 7 8 18 22 24 26 28 27 26 27 27 25 24 16 13 14 11 7 4 10 13 12 11 14 15 18 20 20 19 19 17 16 19 18
5 3 1 2 1 4 2 7 10 9 7 9 6 5 5 6 11 15 20 23 27 30 31 30 27 27 27 25 25 18 17 13 12 8 6 7 12 14 15 17 19 21 20 20 18 17 18 18 19
4 2 2 4 2 2 6 8 5 6 4 5 4 6 7 6 7 15 19 23 26 29 30 30 29 26 26 24 21 12 13 10 13 13 11 8 6 10 13 16 19 20 19 20 21 21 18 17 15
3 5 1 3 6 3 4 4 6 2 3 4 5 4 4 5 7 10 17 20 24 27 29 29 29 28 26 25 22 19 14 15 19 18 15 12 8 7 7 11 14 15 18 20 20 22 19 11 12
2 3 2 2 3 1 4 3 5 5 6 6 6 3 4 6 6 9 15 19 21 22 23 26 28 31 30 28 26 24 19 15 18 19 16 14 10 9 6 8 7 11 12 14 16 20 17 15 13
2 1 2 1 3 2 5 4 6 4 6 7 9 6 5 6 5 7 10 12 15 19 21 23 26 30 31 31 30 27 26 23 23 23 21 21 19 13 10 7 4 4 7 9 14 16 15 13 12
2 3 5 4 3 3 3 3 5 3 3 6 7 9 5 5 6 8 8 9 13 16 19 22 25 27 29 30 31 30 28 24 26 26 27 25 22 21 17 10 5 2 3 7 11 14 13 12 9
5 5 4 6 5 4 0 1 6 2 5 3 6 9 8 8 8 10 11 10 12 14 17 20 23 26 27 28 30 29 28 27 25 23 24 25 27 25 23 16 11 4 5 10 10 10 12 11 10
4 3 5 4 1 4 2 4 2 5 4 5 6 6 7 7 7 9 14 11 7 9 12 15 19 22 24 26 27 27 26 25 24 23 23 22 22 19 18 17 13 10 8 3 4 10 9 11 9
1 3 2 6 2 3 2 5 3 4 8 8 8 9 10 9 10 10 18 12 8 7 11 15 18 19 20 22 25 24 24 23 23 22 21 23 21 19 18 15 13 11 8 6 5 10 8 9 7
2 4 4 4 1 5 4 5 5 2 6 7 10 9 9 9 10 14 18 10 6 1 4 11 17 19 23 25 19 18 19 20 21 22 23 22 21 20 19 17 14 11 9 7 4 7 11 14 14
1 1 5 4 4 4 2 5 5 7 3 6 6 7 8 8 9 12 21 9 4 1 6 11 12 18 17 18 17 17 16 17 18 19 20 20 20 20 19 19 16 13 10 8 8 6 6 8 9
3 5 5 4 5 3 2 6 7 8 5 4 6 7 8 7 9 16 19 8 11 13 15 15 13 13 17 19 21 19 17 17 17 17 18 18 19 20 21 20 18 16 14 11 10 11 9 9 7

GFSSGP_925_spd_348.txt.gz
Wind_Speed
16 10 5 6 5 6 2 2 3 6 6 2 4 8 9 6 3 3 17 29 29 25 21 19 14 16 17 19 35 33 42 34 20 15 12 10 11 12 12 12 13 15 15 16 14 14 14 14 14
13 7 6 3 5 4 4 3 3 3 4 6 1 3 7 3 4 3 13 29 27 29 26 28 14 9 11 16 23 29 32 40 18 17 8 11 9 10 11 12 13 16 16 15 14 15 14 15 15
7 8 4 4 4 3 2 2 3 3 4 4 3 5 4 6 5 6 19 23 25 28 28 27 19 15 12 14 15 16 17 18 29 35 32 32 31 21 15 12 14 15 16 16 16 16 15 16 16
6 7 5 5 6 3 3 4 4 6 6 9 2 6 5 12 3 11 19 24 28 29 29 26 22 15 14 11 10 12 15 8 21 20 27 26 31 36 35 34 19 15 16 17 18 18 17 17 16
7 4 5 5 3 2 3 3 4 4 3 6 4 2 4 5 10 13 22 27 31 31 29 25 22 22 20 13 12 9 3 6 12 11 17 21 31 42 36 40 29 15 19 18 20 20 18 17 17
4 3 5 3 2 2 2 5 2 5 4 4 5 3 2 9 19 19 17 25 30 32 30 26 22 19 19 18 11 8 8 9 8 9 14 19 24 25 24 36 29 19 18 22 23 22 19 17 16
6 4 4 5 4 3 4 7 4 5 5 6 2 3 0 12 20 19 19 25 30 34 34 29 26 21 17 15 13 13 12 14 14 14 17 17 14 14 9 18 17 14 13 25 27 21 18 15 19
4 4 4 3 2 2 5 3 3 7 3 8 3 4 4 9 20 22 26 30 32 36 35 34 28 25 20 15 15 18 17 15 13 13 12 13 10 8 9 8 5 9 13 9 22 18 17 18 16
2 5 3 2 3 2 4 5 3 3 4 4 4 4 3 13 22 30 36 39 42 41 38 36 33 28 25 20 16 16 16 16 14 14 12 10 8 9 5 9 7 7 2 11 21 14 14 17 17
5 4 2 0 3 2 2 4 4 5 6 5 3 6 11 19 27 27 27 29 38 41 40 38 35 31 28 26 18 14 17 13 13 13 12 10 8 7 5 7 7 9 10 15 10 7 11 13 19
3 4 4 3 2 2 2 3 3 4 5 3 4 7 12 18 24 24 24 24 27 36 39 38 36 32 29 29 23 15 16 14 13 14 13 9 5 4 6 7 6 1 5 13 20 13 8 13 16
6 4 2 2 4 2 3 2 4 4 4 4 5 6 10 18 20 24 27 30 34 36 38 38 37 34 31 28 25 20 13 15 14 12 12 11 7 4 4 2 2 5 11 16 20 16 9 10 13
5 2 4 4 5 4 2 4 2 5 6 9 9 14 11 14 19 24 25 29 36 39 38 37 36 36 33 26 25 23 19 15 16 13 11 9 8 5 3 1 2 7 11 16 19 20 11 12 12
3 4 3 6 4 4 4 3 2 3 4 7 8 9 10 15 20 25 34 33 36 36 36 36 35 34 33 28 23 25 25 16 13 12 13 9 9 7 3 2 5 11 15 17 17 17 16 15 13
3 5 5 9 7 3 2 5 3 3 4 6 8 7 6 14 23 24 27 30 33 35 34 34 35 34 32 31 25 23 25 19 17 11 10 9 7 6 3 3 5 8 12 17 16 17 15 15 14
5 5 4 5 9 3 4 2 2 6 8 9 8 6 8 11 19 25 29 31 33 35 35 33 32 33 33 31 25 21 24 20 16 11 9 8 8 6 5 6 8 10 11 13 15 16 19 19 17
7 4 4 2 4 5 7 3 4 10 9 9 8 7 8 8 19 26 28 30 33 35 36 36 34 34 33 30 27 18 23 24 20 15 12 8 6 6 7 9 8 11 13 15 15 16 17 17 16
3 5 2 0 6 7 7 6 6 9 11 8 7 7 7 8 8 20 25 29 32 36 38 38 35 34 33 31 29 24 23 24 24 22 17 13 12 10 8 9 10 13 15 18 16 17 17 17 16
6 5 3 2 1 4 3 6 7 7 7 8 7 7 8 8 13 20 24 27 31 35 38 40 39 37 35 34 30 27 25 24 25 24 23 18 14 13 11 10 10 13 17 17 16 15 17 15 16
4 4 1 1 3 1 5 5 4 6 4 4 5 7 8 8 10 20 22 26 29 33 35 38 39 39 37 33 28 18 21 19 22 27 26 23 18 15 11 10 9 14 15 15 14 16 17 14 16
2 5 2 1 3 2 4 4 5 3 3 7 7 5 5 6 8 11 20 22 26 28 30 32 35 37 38 36 33 30 28 26 33 34 30 27 23 19 15 8 7 8 11 14 13 16 10 8 12
3 2 3 2 2 1 4 3 1 2 8 8 9 9 7 7 7 10 15 17 19 21 22 25 29 33 36 38 39 33 22 19 21 23 29 28 25 23 19 14 8 6 6 9 12 14 15 11 8
3 3 3 2 3 3 6 4 3 1 7 6 10 10 8 8 7 10 14 14 15 17 20 23 25 28 32 35 36 36 34 29 25 26 29 31 29 28 22 19 14 6 3 5 8 6 14 10 12
5 5 5 4 2 3 3 2 3 2 2 4 6 8 9 9 9 17 15 12 12 13 16 19 23 26 28 33 34 34 33 33 33 32 31 29 28 28 27 22 19 10 6 5 5 8 5 7 5
2 4 3 5 5 4 4 3 4 5 4 2 3 6 8 8 8 13 19 18 12 10 11 14 18 22 26 30 30 31 29 29 31 30 29 29 28 26 25 23 18 16 10 5 6 5 5 5 5
3 3 5 5 2 4 3 5 4 6 6 2 2 5 6 7 6 10 21 22 11 8 8 9 12 15 22 27 25 23 25 25 26 27 28 28 28 26 24 20 17 14 12 10 6 3 7 6 7
2 3 3 7 2 4 3 5 2 6 3 4 5 4 8 9 10 12 24 26 12 8 9 12 17 20 26 24 20 19 19 20 22 24 25 27 28 28 25 21 17 15 13 10 9 8 6 4 4
1 5 3 3 2 4 4 6 5 7 2 5 7 9 8 8 10 15 20 20 13 12 13 16 18 19 20 22 21 19 18 19 19 21 23 25 25 26 26 24 20 15 13 13 11 9 6 5 8
1 1 4 4 4 4 2 6 5 7 5 2 4 5 7 7 8 11 16 17 15 14 15 16 19 21 22 23 23 22 22 21 20 19 20 21 22 24 25 26 24 21 18 16 16 13 12 9 8
2 6 5 4 5 2 3 6 3 9 7 4 2 4 5 4 6 13 19 20 19 18 19 20 20 22 23 23 24 24 24 25 24 22 20 20 20 21 23 24 24 21 21 19 17 16 15 13 9